Simultaneous Nadir Overpasses (SNOs) Predictions

Prediction of SNOs between TERRA and METOP-C Satellite Orbit:

Table of predicted SNOs for the next 14.0 days since TLE Epoch: 6/29/2024
Index Date (TERRA) Time (TERRA) Lat,Lon (TERRA) SZA (TERRA ) Date (METOP-C) Time (METOP-C) Lat,Lon (METOP-C) SZA (METOP-C ) Distance(km) Time Diff (sec)
1 06/30/2024 07:47:05 76.75, 66.44 53.55 06/30/2024 07:45:55 76.75, 66.51 53.56 1.82 70
2 06/30/2024 08:36:16 -77.28,-123.97 125.88 06/30/2024 08:36:25 -77.28,-123.99 125.89 0.53 9
3 07/02/2024 23:06:57 -77.04, 17.43 125.96 07/02/2024 23:06:50 -77.03, 17.36 125.97 2.06 7
4 07/02/2024 23:56:03 77.68,-172.43 54.74 07/02/2024 23:57:14 77.69,-172.38 54.75 1.47 71
5 07/05/2024 13:37:36 -76.84, 159.06 125.92 07/05/2024 13:37:13 -76.84, 159.04 125.92 0.34 23
6 07/05/2024 14:26:41 77.54, -30.69 54.82 07/05/2024 14:27:36 77.55, -30.60 54.84 2.35 55
7 07/08/2024 04:08:15 -76.61, -59.42 125.88 07/08/2024 04:07:37 -76.60, -59.47 125.89 1.47 38
8 07/08/2024 04:57:20 77.31, 110.75 54.86 07/08/2024 04:58:00 77.31, 110.76 54.86 0.33 40
9 07/10/2024 18:38:52 -76.43, 82.31 125.74 07/10/2024 18:37:59 -76.43, 82.34 125.74 0.64 53



Historial Predications of SNOs between TERRA and METOP-C
